Time,TemperatureF,DewpointF,PressureIn,WindDirection,WindDirectionDegrees,WindSpeedMPH,WindSpeedGustMPH,Humidity,HourlyPrecipIn,Conditions,Clouds,dailyrainin,SoftwareType,DateUTC
2013-02-25 00:00:00,42.8,41.5,29.77,East,96,8.0,12.0,95,0.07,,,0.00,WeatherCatV1.10B1784,2013-02-25 08:00:00,
2013-02-25 00:05:00,42.8,41.7,29.77,ESE,121,12.0,18.0,96,0.07,,,0.00,WeatherCatV1.10B1784,2013-02-25 08:05:00,
2013-02-25 00:10:00,42.8,41.5,29.77,SE,129,12.0,16.0,95,0.05,,,0.00,WeatherCatV1.10B1784,2013-02-25 08:10:00,
2013-02-25 00:15:00,42.9,41.6,29.76,East,92,8.0,18.0,95,0.03,,,0.00,WeatherCatV1.10B1784,2013-02-25 08:15:00,
2013-02-25 00:20:00,42.9,41.6,29.77,East,95,7.0,15.0,95,0.00,,,0.00,WeatherCatV1.10B1784,2013-02-25 08:20:00,
2013-02-25 00:25:00,42.9,41.6,29.77,SE,124,13.0,18.0,95,0.00,,,0.00,WeatherCatV1.10B1784,2013-02-25 08:25:00,
2013-02-25 00:30:00,43.0,41.7,29.78,SSE,154,9.0,13.0,95,0.00,,,0.00,WeatherCatV1.10B1784,2013-02-25 08:30:00,
2013-02-25 00:35:00,43.0,41.7,29.78,SE,125,6.0,13.0,95,0.00,,,0.00,WeatherCatV1.10B1784,2013-02-25 08:35:00,
2013-02-25 00:40:00,43.0,41.7,29.77,East,79,7.0,16.0,95,0.19,,,0.02,WeatherCatV1.10B1784,2013-02-25 08:40:00,
2013-02-25 00:45:00,43.0,41.7,29.77,SE,131,5.0,14.0,95,0.19,,,0.03,WeatherCatV1.10B1784,2013-02-25 08:45:00,
2013-02-25 00:50:00,42.9,41.6,29.76,East,86,12.0,17.0,95,0.13,,,0.04,WeatherCatV1.10B1784,2013-02-25 08:50:00,
2013-02-25 00:55:00,42.8,41.5,29.76,ESE,113,7.0,11.0,95,0.06,,,0.05,WeatherCatV1.10B1784,2013-02-25 08:55:00,
2013-02-25 01:00:00,42.8,41.5,29.76,SSE,158,4.0,12.0,95,0.06,,,0.05,WeatherCatV1.10B1784,2013-02-25 09:00:00,
2013-02-25 01:05:00,42.7,41.4,29.76,SSE,155,6.0,14.0,95,0.04,,,0.05,WeatherCatV1.10B1784,2013-02-25 09:05:00,
2013-02-25 01:10:00,42.6,41.3,29.76,SE,124,9.0,15.0,95,0.03,,,0.05,WeatherCatV1.10B1784,2013-02-25 09:10:00,
2013-02-25 01:15:00,42.4,41.1,29.75,SE,124,14.0,19.0,95,0.00,,,0.05,WeatherCatV1.10B1784,2013-02-25 09:15:00,
2013-02-25 01:20:00,42.3,41.0,29.75,ESE,120,12.0,12.0,95,0.00,,,0.05,WeatherCatV1.10B1784,2013-02-25 09:20:00,
2013-02-25 01:25:00,42.4,41.1,29.75,ESE,113,7.0,16.0,95,0.00,,,0.05,WeatherCatV1.10B1784,2013-02-25 09:25:00,
2013-02-25 01:30:00,42.4,41.1,29.75,SSE,152,10.0,15.0,95,0.00,,,0.05,WeatherCatV1.10B1784,2013-02-25 09:30:00,
2013-02-25 01:35:00,42.5,41.2,29.74,ESE,113,6.0,12.0,95,0.00,,,0.05,WeatherCatV1.10B1784,2013-02-25 09:35:00,
2013-02-25 01:40:00,42.5,41.2,29.74,ESE,108,6.0,18.0,95,0.00,,,0.05,WeatherCatV1.10B1784,2013-02-25 09:40:00,
2013-02-25 01:45:00,42.5,41.2,29.74,SE,132,6.0,15.0,95,0.00,,,0.05,WeatherCatV1.10B1784,2013-02-25 09:45:00,
2013-02-25 01:50:00,42.5,41.2,29.74,SE,125,6.0,10.0,95,0.00,,,0.05,WeatherCatV1.10B1784,2013-02-25 09:50:00,
2013-02-25 01:55:00,42.5,41.2,29.74,SE,127,6.0,6.0,95,0.00,,,0.05,WeatherCatV1.10B1784,2013-02-25 09:55:00,
2013-02-25 02:00:00,42.5,41.2,29.74,SSW,208,4.0,9.0,95,0.00,,,0.05,WeatherCatV1.10B1784,2013-02-25 10:00:00,
2013-02-25 02:05:00,42.4,41.1,29.73,SE,131,4.0,11.0,95,0.00,,,0.05,WeatherCatV1.10B1784,2013-02-25 10:05:00,
2013-02-25 02:10:00,42.3,41.0,29.73,ESE,118,5.0,10.0,95,0.00,,,0.05,WeatherCatV1.10B1784,2013-02-25 10:10:00,
2013-02-25 02:15:00,42.3,41.0,29.73,NE,47,10.0,14.0,95,0.00,,,0.05,WeatherCatV1.10B1784,2013-02-25 10:15:00,
2013-02-25 02:20:00,42.1,40.5,29.72,ESE,117,8.0,13.0,94,0.00,,,0.05,WeatherCatV1.10B1784,2013-02-25 10:20:00,
2013-02-25 02:25:00,42.0,40.4,29.72,SE,137,6.0,10.0,94,0.00,,,0.05,WeatherCatV1.10B1784,2013-02-25 10:25:00,
2013-02-25 02:30:00,41.9,40.3,29.71,East,86,8.0,9.0,94,0.00,,,0.05,WeatherCatV1.10B1784,2013-02-25 10:30:00,
2013-02-25 02:35:00,42.0,40.4,29.72,East,92,3.0,6.0,94,0.00,,,0.05,WeatherCatV1.10B1784,2013-02-25 10:35:00,
2013-02-25 02:40:00,42.0,40.1,29.72,ESE,117,5.0,7.0,93,0.00,,,0.05,WeatherCatV1.10B1784,2013-02-25 10:40:00,
2013-02-25 02:45:00,42.2,40.3,29.72,East,97,8.0,14.0,93,0.00,,,0.05,WeatherCatV1.10B1784,2013-02-25 10:45:00,
2013-02-25 02:50:00,42.2,40.0,29.72,SE,125,8.0,10.0,92,0.00,,,0.05,WeatherCatV1.10B1784,2013-02-25 10:50:00,
2013-02-25 02:55:00,42.1,39.7,29.71,East,97,6.0,11.0,91,0.00,,,0.05,WeatherCatV1.10B1784,2013-02-25 10:55:00,
2013-02-25 03:00:00,41.9,39.5,29.71,ESE,113,6.0,12.0,91,0.00,,,0.05,WeatherCatV1.10B1784,2013-02-25 11:00:00,
2013-02-25 03:05:00,41.9,39.2,29.70,ESE,104,8.0,11.0,90,0.00,,,0.05,WeatherCatV1.10B1784,2013-02-25 11:05:00,
2013-02-25 03:10:00,42.0,39.0,29.69,ESE,110,9.0,19.0,89,0.00,,,0.05,WeatherCatV1.10B1784,2013-02-25 11:10:00,
2013-02-25 03:15:00,42.5,38.9,29.68,SSE,153,10.0,14.0,87,0.00,,,0.05,WeatherCatV1.10B1784,2013-02-25 11:15:00,
2013-02-25 03:20:00,43.1,38.6,29.67,ESE,103,5.0,9.0,84,0.00,,,0.05,WeatherCatV1.10B1784,2013-02-25 11:20:00,
2013-02-25 03:25:00,43.6,38.2,29.68,South,172,6.0,10.0,81,0.00,,,0.05,WeatherCatV1.10B1784,2013-02-25 11:25:00,
2013-02-25 03:30:00,43.5,38.4,29.69,SE,124,6.0,13.0,82,0.00,,,0.05,WeatherCatV1.10B1784,2013-02-25 11:30:00,
2013-02-25 03:35:00,43.3,38.2,29.69,SSE,156,2.0,12.0,82,0.00,,,0.05,WeatherCatV1.10B1784,2013-02-25 11:35:00,
2013-02-25 03:40:00,43.1,38.3,29.69,SSE,148,13.0,14.0,83,0.00,,,0.05,WeatherCatV1.10B1784,2013-02-25 11:40:00,
2013-02-25 03:45:00,42.8,38.3,29.70,SSE,154,2.0,16.0,84,0.00,,,0.05,WeatherCatV1.10B1784,2013-02-25 11:45:00,
2013-02-25 03:50:00,42.6,38.4,29.70,ESE,119,11.0,11.0,85,0.00,,,0.05,WeatherCatV1.10B1784,2013-02-25 11:50:00,
2013-02-25 03:55:00,42.4,38.2,29.71,ESE,114,2.0,4.0,85,0.00,,,0.05,WeatherCatV1.10B1784,2013-02-25 11:55:00,
2013-02-25 04:00:00,42.3,38.4,29.70,SW,229,0.0,4.0,86,0.00,,,0.05,WeatherCatV1.10B1784,2013-02-25 12:00:00,
2013-02-25 04:05:00,42.2,38.3,29.70,SE,124,3.0,4.0,86,0.00,,,0.05,WeatherCatV1.10B1784,2013-02-25 12:05:00,
2013-02-25 04:10:00,42.2,38.0,29.70,SE,131,6.0,8.0,85,0.00,,,0.05,WeatherCatV1.10B1784,2013-02-25 12:10:00,
2013-02-25 04:15:00,42.4,37.9,29.70,East,91,2.0,10.0,84,0.00,,,0.05,WeatherCatV1.10B1784,2013-02-25 12:15:00,
2013-02-25 04:20:00,42.3,38.1,29.70,South,176,3.0,3.0,85,0.00,,,0.05,WeatherCatV1.10B1784,2013-02-25 12:20:00,
2013-02-25 04:25:00,42.0,38.1,29.70,SSW,203,5.0,7.0,86,0.00,,,0.05,WeatherCatV1.10B1784,2013-02-25 12:25:00,
2013-02-25 04:30:00,41.8,37.9,29.69,SSE,160,7.0,11.0,86,0.00,,,0.05,WeatherCatV1.10B1784,2013-02-25 12:30:00,
2013-02-25 04:35:00,41.7,37.8,29.68,SE,133,1.0,6.0,86,0.00,,,0.05,WeatherCatV1.10B1784,2013-02-25 12:35:00,
2013-02-25 04:40:00,41.7,37.5,29.69,ESE,117,2.0,6.0,85,0.00,,,0.05,WeatherCatV1.10B1784,2013-02-25 12:40:00,
2013-02-25 04:43:00,41.8,37.6,29.70,SE,136,2.0,7.0,85,0.00,,,0.05,WeatherCatV1.10B1784,2013-02-25 12:43:00,
2013-02-25 04:46:00,42.0,37.5,29.70,ESE,110,7.0,7.0,84,0.00,,,0.05,WeatherCatV1.10B1784,2013-02-25 12:46:00,
2013-02-25 04:51:00,42.1,37.6,29.70,SSE,147,4.0,5.0,84,0.00,,,0.05,WeatherCatV1.10B1784,2013-02-25 12:51:00,
2013-02-25 04:56:00,42.1,37.6,29.70,ESE,120,1.0,4.0,84,0.00,,,0.05,WeatherCatV1.10B1784,2013-02-25 12:56:00,
2013-02-25 05:01:00,41.9,37.4,29.70,East,89,1.0,6.0,84,0.00,,,0.05,WeatherCatV1.10B1784,2013-02-25 13:01:00,
2013-02-25 05:06:00,41.8,37.6,29.70,SSW,194,1.0,3.0,85,0.00,,,0.05,WeatherCatV1.10B1784,2013-02-25 13:06:00,
2013-02-25 05:07:00,41.8,37.6,29.70,South,188,3.0,4.0,85,0.00,,,0.05,WeatherCatV1.10B1784,2013-02-25 13:07:00,
2013-02-25 05:12:00,41.7,37.5,29.70,SW,217,2.0,6.0,85,0.00,,,0.05,WeatherCatV1.10B1784,2013-02-25 13:12:00,
2013-02-25 05:17:00,41.7,37.5,29.70,SW,224,0.0,2.0,85,0.00,,,0.05,WeatherCatV1.10B1784,2013-02-25 13:17:00,
2013-02-25 05:22:00,41.7,37.2,29.70,ESE,113,10.0,10.0,84,0.00,,,0.05,WeatherCatV1.10B1784,2013-02-25 13:22:00,
2013-02-25 05:27:00,42.0,37.5,29.70,WSW,256,3.0,4.0,84,0.00,,,0.05,WeatherCatV1.10B1784,2013-02-25 13:27:00,
2013-02-25 05:32:00,41.9,37.7,29.70,SSE,168,1.0,6.0,85,0.00,,,0.05,WeatherCatV1.10B1784,2013-02-25 13:32:00,
2013-02-25 05:37:00,41.6,37.4,29.70,SSE,149,2.0,10.0,85,0.00,,,0.05,WeatherCatV1.10B1784,2013-02-25 13:37:00,
2013-02-25 05:42:00,41.5,37.6,29.70,SSE,168,0.0,1.0,86,0.00,,,0.05,WeatherCatV1.10B1784,2013-02-25 13:42:00,
2013-02-25 05:47:00,41.3,37.7,29.70,SSW,200,2.0,5.0,87,0.00,,,0.05,WeatherCatV1.10B1784,2013-02-25 13:47:00,
2013-02-25 05:52:00,41.2,37.6,29.70,SE,142,1.0,6.0,87,0.00,,,0.05,WeatherCatV1.10B1784,2013-02-25 13:52:00,
2013-02-25 05:57:00,41.3,37.7,29.70,SSE,163,0.0,2.0,87,0.00,,,0.05,WeatherCatV1.10B1784,2013-02-25 13:57:00,
2013-02-25 06:02:00,41.3,37.7,29.70,SW,224,2.0,3.0,87,0.00,,,0.05,WeatherCatV1.10B1784,2013-02-25 14:02:00,
2013-02-25 06:07:00,41.2,37.9,29.70,ESE,116,1.0,2.0,88,0.00,,,0.05,WeatherCatV1.10B1784,2013-02-25 14:07:00,
2013-02-25 06:12:00,41.1,37.8,29.70,SE,139,1.0,3.0,88,0.00,,,0.05,WeatherCatV1.10B1784,2013-02-25 14:12:00,
2013-02-25 06:17:00,41.2,37.9,29.70,SE,124,6.0,6.0,88,0.00,,,0.05,WeatherCatV1.10B1784,2013-02-25 14:17:00,
2013-02-25 06:22:00,41.2,37.9,29.70,SSE,153,2.0,3.0,88,0.00,,,0.05,WeatherCatV1.10B1784,2013-02-25 14:22:00,
2013-02-25 06:27:00,41.2,37.9,29.71,SSW,205,1.0,3.0,88,0.00,,,0.05,WeatherCatV1.10B1784,2013-02-25 14:27:00,
2013-02-25 06:32:00,41.2,37.9,29.70,SE,127,0.0,0.0,88,0.00,,,0.05,WeatherCatV1.10B1784,2013-02-25 14:32:00,
2013-02-25 06:37:00,41.2,37.9,29.70,ESE,122,6.0,7.0,88,0.00,,,0.05,WeatherCatV1.10B1784,2013-02-25 14:37:00,
2013-02-25 06:42:00,41.4,38.1,29.71,West,266,3.0,4.0,88,0.00,,,0.05,WeatherCatV1.10B1784,2013-02-25 14:42:00,
2013-02-25 06:47:00,41.3,38.0,29.71,WSW,250,1.0,5.0,88,0.00,,,0.05,WeatherCatV1.10B1784,2013-02-25 14:47:00,
2013-02-25 06:52:00,41.3,38.0,29.72,SW,225,4.0,4.0,88,0.00,,,0.05,WeatherCatV1.10B1784,2013-02-25 14:52:00,
2013-02-25 06:57:00,41.7,37.5,29.72,WSW,237,8.0,11.0,85,0.00,,,0.05,WeatherCatV1.10B1784,2013-02-25 14:57:00,
2013-02-25 07:02:00,42.5,37.4,29.72,WSW,239,7.0,10.0,82,0.00,,,0.05,WeatherCatV1.10B1784,2013-02-25 15:02:00,
2013-02-25 07:07:00,42.7,37.3,29.72,SW,217,4.0,9.0,81,0.00,,,0.05,WeatherCatV1.10B1784,2013-02-25 15:07:00,
2013-02-25 07:12:00,42.8,37.4,29.72,WSW,240,4.0,7.0,81,0.00,,,0.05,WeatherCatV1.10B1784,2013-02-25 15:12:00,
2013-02-25 07:17:00,42.8,37.4,29.73,WSW,249,4.0,7.0,81,0.00,,,0.05,WeatherCatV1.10B1784,2013-02-25 15:17:00,
2013-02-25 07:22:00,42.9,37.5,29.73,WNW,282,4.0,6.0,81,0.00,,,0.05,WeatherCatV1.10B1784,2013-02-25 15:22:00,
2013-02-25 07:27:00,43.0,37.6,29.74,West,264,3.0,7.0,81,0.00,,,0.05,WeatherCatV1.10B1784,2013-02-25 15:27:00,
2013-02-25 07:32:00,42.8,37.4,29.74,West,281,3.0,6.0,81,0.00,,,0.05,WeatherCatV1.10B1784,2013-02-25 15:32:00,
2013-02-25 07:37:00,43.1,37.4,29.75,WNW,288,11.0,14.0,80,0.00,,,0.05,WeatherCatV1.10B1784,2013-02-25 15:37:00,
2013-02-25 07:42:00,43.7,37.6,29.75,SW,236,10.0,10.0,79,0.00,,,0.05,WeatherCatV1.10B1784,2013-02-25 15:42:00,
2013-02-25 07:47:00,44.0,37.9,29.76,WNW,294,4.0,5.0,79,0.00,,,0.05,WeatherCatV1.10B1784,2013-02-25 15:47:00,
2013-02-25 07:52:00,44.1,38.0,29.77,WNW,290,7.0,11.0,79,0.00,,,0.05,WeatherCatV1.10B1784,2013-02-25 15:52:00,
2013-02-25 07:57:00,44.3,38.2,29.78,WNW,297,7.0,13.0,79,0.00,,,0.05,WeatherCatV1.10B1784,2013-02-25 15:57:00,
2013-02-25 08:02:00,44.2,38.4,29.78,WNW,282,7.0,12.0,80,0.00,,,0.05,WeatherCatV1.10B1784,2013-02-25 16:02:00,
2013-02-25 08:07:00,43.9,38.8,29.78,West,264,5.0,11.0,82,0.00,,,0.05,WeatherCatV1.10B1784,2013-02-25 16:07:00,
2013-02-25 08:12:00,43.6,38.5,29.79,WNW,283,9.0,13.0,82,0.00,,,0.05,WeatherCatV1.10B1784,2013-02-25 16:12:00,
2013-02-25 08:17:00,43.5,38.7,29.79,NW,307,6.0,8.0,83,0.00,,,0.05,WeatherCatV1.10B1784,2013-02-25 16:17:00,
2013-02-25 08:22:00,43.5,38.7,29.80,WNW,291,5.0,7.0,83,0.00,,,0.05,WeatherCatV1.10B1784,2013-02-25 16:22:00,
2013-02-25 08:27:00,43.5,39.0,29.81,NW,316,13.0,22.0,84,0.00,,,0.05,WeatherCatV1.10B1784,2013-02-25 16:27:00,
2013-02-25 08:32:00,44.3,40.1,29.82,WNW,302,23.0,27.0,85,0.00,,,0.05,WeatherCatV1.10B1784,2013-02-25 16:32:00,
2013-02-25 08:37:00,44.3,39.8,29.82,NW,305,19.0,22.0,84,0.00,,,0.05,WeatherCatV1.10B1784,2013-02-25 16:37:00,
2013-02-25 08:42:00,44.1,39.6,29.83,NW,311,9.0,20.0,84,0.00,,,0.05,WeatherCatV1.10B1784,2013-02-25 16:42:00,
2013-02-25 08:47:00,43.9,39.4,29.83,WNW,298,12.0,19.0,84,0.00,,,0.05,WeatherCatV1.10B1784,2013-02-25 16:47:00,
2013-02-25 08:52:00,43.7,39.2,29.83,NW,304,6.0,9.0,84,0.00,,,0.05,WeatherCatV1.10B1784,2013-02-25 16:52:00,
2013-02-25 08:57:00,43.8,39.6,29.83,WNW,283,7.0,16.0,85,0.00,,,0.05,WeatherCatV1.10B1784,2013-02-25 16:57:00,
2013-02-25 09:02:00,43.8,39.3,29.83,WNW,289,3.0,20.0,84,0.00,,,0.05,WeatherCatV1.10B1784,2013-02-25 17:02:00,
2013-02-25 09:07:00,43.7,39.2,29.84,NW,318,4.0,12.0,84,0.00,,,0.05,WeatherCatV1.10B1784,2013-02-25 17:07:00,
2013-02-25 09:12:00,43.6,39.1,29.84,WNW,284,5.0,8.0,84,0.00,,,0.05,WeatherCatV1.10B1784,2013-02-25 17:12:00,
2013-02-25 09:17:00,43.4,39.2,29.85,WNW,298,11.0,13.0,85,0.00,,,0.05,WeatherCatV1.10B1784,2013-02-25 17:17:00,
2013-02-25 09:22:00,43.5,39.3,29.85,WNW,292,6.0,10.0,85,0.00,,,0.05,WeatherCatV1.10B1784,2013-02-25 17:22:00,
2013-02-25 09:27:00,43.4,39.2,29.85,WNW,296,4.0,10.0,85,0.00,,,0.05,WeatherCatV1.10B1784,2013-02-25 17:27:00,
2013-02-25 09:32:00,43.4,39.2,29.86,WNW,295,8.0,12.0,85,0.00,,,0.05,WeatherCatV1.10B1784,2013-02-25 17:32:00,
2013-02-25 09:37:00,43.5,39.6,29.86,NW,309,7.0,15.0,86,0.00,,,0.05,WeatherCatV1.10B1784,2013-02-25 17:37:00,
2013-02-25 09:42:00,43.6,39.7,29.86,WNW,303,7.0,12.0,86,0.00,,,0.05,WeatherCatV1.10B1784,2013-02-25 17:42:00,
2013-02-25 09:47:00,43.6,40.3,29.87,WNW,287,8.0,21.0,88,0.00,,,0.05,WeatherCatV1.10B1784,2013-02-25 17:47:00,
2013-02-25 09:52:00,43.5,40.2,29.88,NNW,328,19.0,21.0,88,0.00,,,0.05,WeatherCatV1.10B1784,2013-02-25 17:52:00,
2013-02-25 09:57:00,43.5,40.5,29.88,NW,321,5.0,12.0,89,0.00,,,0.05,WeatherCatV1.10B1784,2013-02-25 17:57:00,
2013-02-25 10:02:00,43.6,40.6,29.88,NW,314,12.0,16.0,89,0.00,,,0.05,WeatherCatV1.10B1784,2013-02-25 18:02:00,
2013-02-25 10:07:00,43.6,40.3,29.88,North,8,8.0,21.0,88,0.00,,,0.05,WeatherCatV1.10B1784,2013-02-25 18:07:00,
2013-02-25 10:12:00,43.8,40.5,29.88,NW,318,9.0,17.0,88,0.00,,,0.05,WeatherCatV1.10B1784,2013-02-25 18:12:00,
2013-02-25 10:17:00,43.9,40.6,29.89,NW,304,11.0,19.0,88,0.00,,,0.05,WeatherCatV1.10B1784,2013-02-25 18:17:00,
2013-02-25 10:22:00,44.2,40.9,29.89,NNW,333,10.0,10.0,88,0.00,,,0.05,WeatherCatV1.10B1784,2013-02-25 18:22:00,
2013-02-25 10:27:00,44.4,40.8,29.89,North,350,2.0,10.0,87,0.00,,,0.05,WeatherCatV1.10B1784,2013-02-25 18:27:00,
2013-02-25 10:32:00,44.4,40.8,29.90,NNW,345,15.0,19.0,87,0.00,,,0.05,WeatherCatV1.10B1784,2013-02-25 18:32:00,
2013-02-25 10:37:00,44.3,40.7,29.90,NW,323,8.0,17.0,87,0.00,,,0.05,WeatherCatV1.10B1784,2013-02-25 18:37:00,
2013-02-25 10:42:00,44.4,40.5,29.90,NW,304,12.0,15.0,86,0.00,,,0.05,WeatherCatV1.10B1784,2013-02-25 18:42:00,
2013-02-25 10:47:00,44.5,40.9,29.90,NW,304,9.0,14.0,87,0.00,,,0.05,WeatherCatV1.10B1784,2013-02-25 18:47:00,
2013-02-25 10:52:00,44.7,41.1,29.91,NW,326,11.0,11.0,87,0.00,,,0.05,WeatherCatV1.10B1784,2013-02-25 18:52:00,
2013-02-25 10:57:00,44.7,40.8,29.91,North,1,8.0,15.0,86,0.00,,,0.05,WeatherCatV1.10B1784,2013-02-25 18:57:00,
2013-02-25 11:02:00,44.8,40.9,29.92,NW,311,13.0,15.0,86,0.00,,,0.05,WeatherCatV1.10B1784,2013-02-25 19:02:00,
2013-02-25 11:07:00,44.8,40.6,29.92,NNW,338,11.0,14.0,85,0.00,,,0.05,WeatherCatV1.10B1784,2013-02-25 19:07:00,
2013-02-25 11:12:00,44.7,40.5,29.92,North,351,8.0,12.0,85,0.00,,,0.05,WeatherCatV1.10B1784,2013-02-25 19:12:00,
2013-02-25 11:17:00,44.7,40.8,29.93,NNW,340,9.0,13.0,86,0.00,,,0.05,WeatherCatV1.10B1784,2013-02-25 19:17:00,
2013-02-25 11:22:00,44.7,40.8,29.93,NNW,333,10.0,11.0,86,0.00,,,0.05,WeatherCatV1.10B1784,2013-02-25 19:22:00,
2013-02-25 11:27:00,44.8,40.9,29.93,NW,321,8.0,10.0,86,0.00,,,0.05,WeatherCatV1.10B1784,2013-02-25 19:27:00,
2013-02-25 11:32:00,45.1,41.2,29.94,NW,326,7.0,9.0,86,0.00,,,0.05,WeatherCatV1.10B1784,2013-02-25 19:32:00,
2013-02-25 11:37:00,45.4,41.2,29.94,NNW,340,8.0,11.0,85,0.00,,,0.05,WeatherCatV1.10B1784,2013-02-25 19:37:00,
2013-02-25 11:42:00,45.5,41.3,29.94,NW,311,3.0,7.0,85,0.00,,,0.05,WeatherCatV1.10B1784,2013-02-25 19:42:00,
2013-02-25 11:47:00,45.7,40.8,29.94,North,357,7.0,13.0,83,0.00,,,0.05,WeatherCatV1.10B1784,2013-02-25 19:47:00,
2013-02-25 11:52:00,45.9,41.3,29.95,NW,304,15.0,15.0,84,0.00,,,0.05,WeatherCatV1.10B1784,2013-02-25 19:52:00,
2013-02-25 11:57:00,45.8,40.9,29.95,NNW,348,6.0,9.0,83,0.00,,,0.05,WeatherCatV1.10B1784,2013-02-25 19:57:00,
2013-02-25 12:02:00,46.0,41.4,29.95,WNW,293,4.0,9.0,84,0.00,,,0.05,WeatherCatV1.10B1784,2013-02-25 20:02:00,
2013-02-25 12:07:00,46.2,41.6,29.96,WNW,295,3.0,10.0,84,0.00,,,0.05,WeatherCatV1.10B1784,2013-02-25 20:07:00,
2013-02-25 12:12:00,46.2,41.3,29.96,WSW,253,10.0,15.0,83,0.00,,,0.05,WeatherCatV1.10B1784,2013-02-25 20:12:00,
2013-02-25 12:17:00,45.9,40.7,29.96,WNW,284,12.0,13.0,82,0.00,,,0.05,WeatherCatV1.10B1784,2013-02-25 20:17:00,
2013-02-25 12:22:00,45.6,40.4,29.96,NNW,333,5.0,15.0,82,0.00,,,0.05,WeatherCatV1.10B1784,2013-02-25 20:22:00,
2013-02-25 12:27:00,45.4,40.2,29.97,WSW,246,5.0,16.0,82,0.00,,,0.05,WeatherCatV1.10B1784,2013-02-25 20:27:00,
2013-02-25 12:32:00,45.3,40.4,29.97,NW,314,12.0,13.0,83,0.00,,,0.05,WeatherCatV1.10B1784,2013-02-25 20:32:00,
2013-02-25 12:37:00,45.4,40.2,29.97,NNW,330,6.0,12.0,82,0.00,,,0.05,WeatherCatV1.10B1784,2013-02-25 20:37:00,
2013-02-25 12:42:00,45.5,40.6,29.97,WNW,294,9.0,14.0,83,0.00,,,0.05,WeatherCatV1.10B1784,2013-02-25 20:42:00,
2013-02-25 12:47:00,45.6,40.7,29.98,NW,304,10.0,10.0,83,0.00,,,0.05,WeatherCatV1.10B1784,2013-02-25 20:47:00,
2013-02-25 12:52:00,45.5,40.0,29.98,NNW,337,8.0,16.0,81,0.00,,,0.05,WeatherCatV1.10B1784,2013-02-25 20:52:00,
2013-02-25 12:57:00,45.7,40.2,29.98,WNW,296,7.0,13.0,81,0.00,,,0.05,WeatherCatV1.10B1784,2013-02-25 20:57:00,
2013-02-25 13:02:00,45.7,40.2,29.98,NW,307,15.0,15.0,81,0.00,,,0.05,WeatherCatV1.10B1784,2013-02-25 21:02:00,
2013-02-25 13:07:00,45.7,40.2,29.98,NW,308,5.0,13.0,81,0.00,,,0.05,WeatherCatV1.10B1784,2013-02-25 21:07:00,
2013-02-25 13:12:00,45.8,40.3,29.99,NW,326,3.0,11.0,81,0.00,,,0.05,WeatherCatV1.10B1784,2013-02-25 21:12:00,
2013-02-25 13:17:00,46.0,40.8,29.99,NNW,328,5.0,14.0,82,0.00,,,0.05,WeatherCatV1.10B1784,2013-02-25 21:17:00,
2013-02-25 13:22:00,46.4,41.2,29.99,NW,319,4.0,14.0,82,0.00,,,0.05,WeatherCatV1.10B1784,2013-02-25 21:22:00,
2013-02-25 13:27:00,46.5,40.0,29.99,WNW,301,11.0,18.0,78,0.00,,,0.05,WeatherCatV1.10B1784,2013-02-25 21:27:00,
2013-02-25 13:32:00,46.7,40.2,30.00,NNW,335,4.0,17.0,78,0.00,,,0.05,WeatherCatV1.10B1784,2013-02-25 21:32:00,
2013-02-25 13:37:00,47.0,40.5,30.00,WNW,285,8.0,14.0,78,0.00,,,0.05,WeatherCatV1.10B1784,2013-02-25 21:37:00,
2013-02-25 13:42:00,47.0,39.5,30.00,NW,326,11.0,13.0,75,0.00,,,0.05,WeatherCatV1.10B1784,2013-02-25 21:42:00,
2013-02-25 13:47:00,46.9,39.7,30.00,NNW,343,10.0,16.0,76,0.00,,,0.05,WeatherCatV1.10B1784,2013-02-25 21:47:00,
2013-02-25 13:52:00,46.8,39.0,30.00,West,268,6.0,16.0,74,0.00,,,0.05,WeatherCatV1.10B1784,2013-02-25 21:52:00,
2013-02-25 13:57:00,46.7,38.9,30.01,NNW,346,17.0,17.0,74,0.00,,,0.05,WeatherCatV1.10B1784,2013-02-25 21:57:00,
2013-02-25 14:02:00,46.7,38.2,30.01,NNE,16,10.0,14.0,72,0.00,,,0.05,WeatherCatV1.10B1784,2013-02-25 22:02:00,
2013-02-25 14:07:00,46.7,37.8,30.01,NW,316,7.0,18.0,71,0.00,,,0.05,WeatherCatV1.10B1784,2013-02-25 22:07:00,
2013-02-25 14:12:00,46.7,38.5,30.01,NNW,338,8.0,14.0,73,0.00,,,0.05,WeatherCatV1.10B1784,2013-02-25 22:12:00,
2013-02-25 14:17:00,46.7,37.8,30.02,North,1,11.0,19.0,71,0.00,,,0.05,WeatherCatV1.10B1784,2013-02-25 22:17:00,
2013-02-25 14:22:00,46.7,37.8,30.02,NW,307,9.0,18.0,71,0.00,,,0.05,WeatherCatV1.10B1784,2013-02-25 22:22:00,
2013-02-25 14:27:00,46.8,37.5,30.02,WNW,294,17.0,19.0,70,0.00,,,0.05,WeatherCatV1.10B1784,2013-02-25 22:27:00,
2013-02-25 14:32:00,46.9,36.5,30.02,WNW,297,5.0,17.0,67,0.00,,,0.05,WeatherCatV1.10B1784,2013-02-25 22:32:00,
2013-02-25 14:37:00,46.8,36.4,30.03,NW,315,18.0,20.0,67,0.00,,,0.05,WeatherCatV1.10B1784,2013-02-25 22:37:00,
2013-02-25 14:42:00,46.7,36.3,30.03,West,275,8.0,20.0,67,0.00,,,0.05,WeatherCatV1.10B1784,2013-02-25 22:42:00,
2013-02-25 14:47:00,46.8,36.4,30.03,NW,319,13.0,17.0,67,0.00,,,0.05,WeatherCatV1.10B1784,2013-02-25 22:47:00,
2013-02-25 14:52:00,46.9,36.1,30.03,NW,307,18.0,19.0,66,0.00,,,0.05,WeatherCatV1.10B1784,2013-02-25 22:52:00,
2013-02-25 14:57:00,47.0,37.0,30.04,NNW,335,4.0,18.0,68,0.00,,,0.05,WeatherCatV1.10B1784,2013-02-25 22:57:00,
2013-02-25 15:02:00,47.0,37.0,30.04,WNW,292,16.0,17.0,68,0.00,,,0.05,WeatherCatV1.10B1784,2013-02-25 23:02:00,
2013-02-25 15:07:00,47.1,36.7,30.04,SSW,204,9.0,16.0,67,0.00,,,0.05,WeatherCatV1.10B1784,2013-02-25 23:07:00,
2013-02-25 15:12:00,47.1,36.7,30.04,NW,311,18.0,20.0,67,0.00,,,0.05,WeatherCatV1.10B1784,2013-02-25 23:12:00,
2013-02-25 15:17:00,47.0,35.5,30.04,NNW,342,12.0,19.0,64,0.00,,,0.05,WeatherCatV1.10B1784,2013-02-25 23:17:00,
2013-02-25 15:22:00,47.1,35.9,30.05,NW,308,8.0,12.0,65,0.00,,,0.05,WeatherCatV1.10B1784,2013-02-25 23:22:00,
2013-02-25 15:27:00,47.3,35.7,30.05,NW,319,9.0,17.0,64,0.00,,,0.05,WeatherCatV1.10B1784,2013-02-25 23:27:00,
2013-02-25 15:32:00,47.3,36.5,30.06,WNW,302,11.0,13.0,66,0.00,,,0.05,WeatherCatV1.10B1784,2013-02-25 23:32:00,
2013-02-25 15:37:00,47.3,37.3,30.06,NW,316,11.0,14.0,68,0.00,,,0.05,WeatherCatV1.10B1784,2013-02-25 23:37:00,
2013-02-25 15:42:00,47.4,37.4,30.06,NW,311,13.0,15.0,68,0.00,,,0.05,WeatherCatV1.10B1784,2013-02-25 23:42:00,
2013-02-25 15:47:00,47.5,36.7,30.06,NW,307,11.0,15.0,66,0.00,,,0.05,WeatherCatV1.10B1784,2013-02-25 23:47:00,
2013-02-25 15:52:00,47.6,37.6,30.06,WNW,303,12.0,13.0,68,0.00,,,0.05,WeatherCatV1.10B1784,2013-02-25 23:52:00,
2013-02-25 15:57:00,47.5,36.3,30.07,North,4,5.0,15.0,65,0.00,,,0.05,WeatherCatV1.10B1784,2013-02-25 23:57:00,
2013-02-25 16:02:00,47.6,36.0,30.07,NW,304,10.0,16.0,64,0.00,,,0.05,WeatherCatV1.10B1784,2013-02-26 00:02:00,
2013-02-25 16:07:00,47.5,35.5,30.07,NW,323,13.0,17.0,63,0.00,,,0.05,WeatherCatV1.10B1784,2013-02-26 00:07:00,
2013-02-25 16:12:00,47.3,36.1,30.08,NW,311,12.0,18.0,65,0.00,,,0.05,WeatherCatV1.10B1784,2013-02-26 00:12:00,
2013-02-25 16:17:00,47.2,37.9,30.08,NW,316,12.0,13.0,70,0.00,,,0.05,WeatherCatV1.10B1784,2013-02-26 00:17:00,
2013-02-25 16:22:00,46.9,36.1,30.08,NW,311,7.0,11.0,66,0.00,,,0.05,WeatherCatV1.10B1784,2013-02-26 00:22:00,
2013-02-25 16:27:00,46.9,34.6,30.08,NW,311,11.0,12.0,62,0.00,,,0.05,WeatherCatV1.10B1784,2013-02-26 00:27:00,
2013-02-25 16:32:00,47.3,33.7,30.09,NW,316,11.0,12.0,59,0.00,,,0.05,WeatherCatV1.10B1784,2013-02-26 00:32:00,
2013-02-25 16:37:00,47.5,33.9,30.09,WNW,293,6.0,10.0,59,0.00,,,0.05,WeatherCatV1.10B1784,2013-02-26 00:37:00,
2013-02-25 16:42:00,47.6,32.7,30.09,WNW,297,6.0,7.0,56,0.00,,,0.05,WeatherCatV1.10B1784,2013-02-26 00:42:00,
2013-02-25 16:47:00,47.6,34.0,30.09,WNW,283,5.0,10.0,59,0.00,,,0.05,WeatherCatV1.10B1784,2013-02-26 00:47:00,
2013-02-25 16:52:00,47.5,34.7,30.09,WNW,301,11.0,14.0,61,0.00,,,0.05,WeatherCatV1.10B1784,2013-02-26 00:52:00,
2013-02-25 16:57:00,47.4,36.2,30.09,North,0,4.0,11.0,65,0.00,,,0.05,WeatherCatV1.10B1784,2013-02-26 00:57:00,
2013-02-25 17:02:00,47.0,36.2,30.09,WNW,302,8.0,10.0,66,0.00,,,0.05,WeatherCatV1.10B1784,2013-02-26 01:02:00,
2013-02-25 17:07:00,46.8,36.8,30.09,NW,323,10.0,13.0,68,0.00,,,0.05,WeatherCatV1.10B1784,2013-02-26 01:07:00,
2013-02-25 17:12:00,46.7,36.3,30.10,NW,307,8.0,11.0,67,0.00,,,0.05,WeatherCatV1.10B1784,2013-02-26 01:12:00,
2013-02-25 17:17:00,46.5,35.0,30.10,WNW,291,6.0,11.0,64,0.00,,,0.05,WeatherCatV1.10B1784,2013-02-26 01:17:00,
2013-02-25 17:22:00,46.5,36.9,30.10,WNW,288,3.0,6.0,69,0.00,,,0.05,WeatherCatV1.10B1784,2013-02-26 01:22:00,
2013-02-25 17:27:00,46.2,33.1,30.10,West,262,3.0,4.0,60,0.00,,,0.05,WeatherCatV1.10B1784,2013-02-26 01:27:00,
2013-02-25 17:32:00,45.9,32.4,30.10,SW,236,5.0,5.0,59,0.00,,,0.05,WeatherCatV1.10B1784,2013-02-26 01:32:00,
2013-02-25 17:37:00,45.6,32.1,30.11,West,281,3.0,5.0,59,0.00,,,0.05,WeatherCatV1.10B1784,2013-02-26 01:37:00,
2013-02-25 17:42:00,45.2,31.7,30.11,WSW,241,2.0,4.0,59,0.00,,,0.05,WeatherCatV1.10B1784,2013-02-26 01:42:00,
2013-02-25 17:47:00,44.8,31.8,30.11,West,276,2.0,4.0,60,0.00,,,0.05,WeatherCatV1.10B1784,2013-02-26 01:47:00,
2013-02-25 17:52:00,44.6,32.0,30.11,SW,232,5.0,7.0,61,0.00,,,0.05,WeatherCatV1.10B1784,2013-02-26 01:52:00,
2013-02-25 17:57:00,44.3,32.1,30.11,SSW,212,7.0,8.0,62,0.00,,,0.05,WeatherCatV1.10B1784,2013-02-26 01:57:00,
2013-02-25 18:02:00,44.3,31.7,30.11,WSW,252,5.0,11.0,61,0.00,,,0.05,WeatherCatV1.10B1784,2013-02-26 02:02:00,
2013-02-25 18:07:00,44.2,31.6,30.12,SW,225,10.0,10.0,61,0.00,,,0.05,WeatherCatV1.10B1784,2013-02-26 02:07:00,
2013-02-25 18:12:00,44.2,31.6,30.12,SSW,193,4.0,10.0,61,0.00,,,0.05,WeatherCatV1.10B1784,2013-02-26 02:12:00,
2013-02-25 18:17:00,44.1,31.5,30.12,SW,233,5.0,8.0,61,0.00,,,0.05,WeatherCatV1.10B1784,2013-02-26 02:17:00,
2013-02-25 18:22:00,44.2,31.6,30.13,SW,232,5.0,9.0,61,0.00,,,0.05,WeatherCatV1.10B1784,2013-02-26 02:22:00,
2013-02-25 18:27:00,44.2,31.6,30.13,SW,226,5.0,10.0,61,0.00,,,0.05,WeatherCatV1.10B1784,2013-02-26 02:27:00,
2013-02-25 18:32:00,44.1,31.5,30.14,SW,228,4.0,9.0,61,0.00,,,0.05,WeatherCatV1.10B1784,2013-02-26 02:32:00,
2013-02-25 18:37:00,44.1,31.5,30.14,WNW,285,6.0,6.0,61,0.00,,,0.05,WeatherCatV1.10B1784,2013-02-26 02:37:00,
2013-02-25 18:42:00,44.1,31.9,30.14,WSW,255,4.0,8.0,62,0.00,,,0.05,WeatherCatV1.10B1784,2013-02-26 02:42:00,
2013-02-25 18:47:00,44.0,31.8,30.14,West,262,6.0,8.0,62,0.00,,,0.05,WeatherCatV1.10B1784,2013-02-26 02:47:00,
2013-02-25 18:52:00,43.9,31.7,30.15,WNW,284,5.0,11.0,62,0.00,,,0.05,WeatherCatV1.10B1784,2013-02-26 02:52:00,
2013-02-25 18:57:00,43.9,32.1,30.15,WSW,257,6.0,10.0,63,0.00,,,0.05,WeatherCatV1.10B1784,2013-02-26 02:57:00,
2013-02-25 19:02:00,43.9,32.1,30.15,WNW,285,7.0,12.0,63,0.00,,,0.05,WeatherCatV1.10B1784,2013-02-26 03:02:00,
2013-02-25 19:07:00,44.0,32.2,30.15,WNW,284,5.0,9.0,63,0.00,,,0.05,WeatherCatV1.10B1784,2013-02-26 03:07:00,
2013-02-25 19:12:00,43.9,32.5,30.16,West,277,5.0,7.0,64,0.00,,,0.05,WeatherCatV1.10B1784,2013-02-26 03:12:00,
2013-02-25 19:17:00,43.8,32.4,30.16,WNW,295,5.0,6.0,64,0.00,,,0.05,WeatherCatV1.10B1784,2013-02-26 03:17:00,
2013-02-25 19:22:00,43.6,32.6,30.16,WSW,248,2.0,6.0,65,0.00,,,0.05,WeatherCatV1.10B1784,2013-02-26 03:22:00,
2013-02-25 19:27:00,43.6,32.2,30.16,West,264,5.0,13.0,64,0.00,,,0.05,WeatherCatV1.10B1784,2013-02-26 03:27:00,
2013-02-25 19:32:00,43.6,32.2,30.16,WNW,285,6.0,10.0,64,0.00,,,0.05,WeatherCatV1.10B1784,2013-02-26 03:32:00,
2013-02-25 19:37:00,43.9,32.5,30.17,WNW,291,1.0,5.0,64,0.00,,,0.05,WeatherCatV1.10B1784,2013-02-26 03:37:00,
2013-02-25 19:42:00,44.1,33.1,30.17,WNW,284,6.0,6.0,65,0.00,,,0.05,WeatherCatV1.10B1784,2013-02-26 03:42:00,
2013-02-25 19:47:00,44.1,32.7,30.18,West,280,3.0,10.0,64,0.00,,,0.05,WeatherCatV1.10B1784,2013-02-26 03:47:00,
2013-02-25 19:52:00,44.0,33.4,30.18,WNW,296,3.0,4.0,66,0.00,,,0.05,WeatherCatV1.10B1784,2013-02-26 03:52:00,
2013-02-25 19:57:00,44.0,33.4,30.18,West,259,5.0,6.0,66,0.00,,,0.05,WeatherCatV1.10B1784,2013-02-26 03:57:00,
2013-02-25 20:02:00,43.9,33.3,30.18,WNW,295,5.0,5.0,66,0.00,,,0.05,WeatherCatV1.10B1784,2013-02-26 04:02:00,
2013-02-25 20:07:00,43.7,33.5,30.18,WNW,283,4.0,7.0,67,0.00,,,0.05,WeatherCatV1.10B1784,2013-02-26 04:07:00,
2013-02-25 20:12:00,43.6,33.4,30.18,WNW,291,5.0,7.0,67,0.00,,,0.05,WeatherCatV1.10B1784,2013-02-26 04:12:00,
2013-02-25 20:17:00,43.5,33.7,30.18,WNW,292,6.0,7.0,68,0.00,,,0.05,WeatherCatV1.10B1784,2013-02-26 04:17:00,
2013-02-25 20:22:00,43.5,33.7,30.19,WNW,301,4.0,6.0,68,0.00,,,0.05,WeatherCatV1.10B1784,2013-02-26 04:22:00,
2013-02-25 20:27:00,43.4,33.6,30.19,WNW,285,5.0,7.0,68,0.00,,,0.05,WeatherCatV1.10B1784,2013-02-26 04:27:00,
2013-02-25 20:32:00,43.5,33.7,30.19,WNW,300,4.0,5.0,68,0.00,,,0.05,WeatherCatV1.10B1784,2013-02-26 04:32:00,
2013-02-25 20:37:00,43.4,33.6,30.20,West,275,2.0,4.0,68,0.00,,,0.05,WeatherCatV1.10B1784,2013-02-26 04:37:00,
2013-02-25 20:42:00,43.3,33.1,30.20,WNW,284,4.0,10.0,67,0.00,,,0.05,WeatherCatV1.10B1784,2013-02-26 04:42:00,
2013-02-25 20:47:00,43.3,32.7,30.20,West,278,4.0,8.0,66,0.00,,,0.05,WeatherCatV1.10B1784,2013-02-26 04:47:00,
2013-02-25 20:52:00,42.9,32.7,30.20,West,262,1.0,6.0,67,0.00,,,0.05,WeatherCatV1.10B1784,2013-02-26 04:52:00,
2013-02-25 20:57:00,42.5,32.7,30.20,West,273,3.0,6.0,68,0.00,,,0.05,WeatherCatV1.10B1784,2013-02-26 04:57:00,
2013-02-25 21:00:00,42.5,32.7,30.21,WNW,285,6.0,7.0,68,0.00,,,0.05,WeatherCatV1.10B1784,2013-02-26 05:00:00,
2013-02-25 21:05:00,42.6,32.8,30.21,WNW,303,2.0,8.0,68,0.00,,,0.05,WeatherCatV1.10B1784,2013-02-26 05:05:00,
2013-02-25 21:10:00,42.6,32.8,30.21,West,278,6.0,7.0,68,0.00,,,0.05,WeatherCatV1.10B1784,2013-02-26 05:10:00,
2013-02-25 21:15:00,42.6,32.8,30.21,WNW,300,3.0,6.0,68,0.00,,,0.05,WeatherCatV1.10B1784,2013-02-26 05:15:00,
2013-02-25 21:20:00,42.7,32.9,30.22,WNW,292,3.0,5.0,68,0.00,,,0.05,WeatherCatV1.10B1784,2013-02-26 05:20:00,
2013-02-25 21:25:00,42.6,32.8,30.22,West,263,3.0,5.0,68,0.00,,,0.05,WeatherCatV1.10B1784,2013-02-26 05:25:00,
2013-02-25 21:30:00,42.3,32.5,30.21,WNW,289,4.0,6.0,68,0.00,,,0.05,WeatherCatV1.10B1784,2013-02-26 05:30:00,
2013-02-25 21:35:00,42.3,32.5,30.22,WSW,249,3.0,7.0,68,0.00,,,0.05,WeatherCatV1.10B1784,2013-02-26 05:35:00,
2013-02-25 21:40:00,42.5,32.7,30.22,West,278,4.0,5.0,68,0.00,,,0.05,WeatherCatV1.10B1784,2013-02-26 05:40:00,
2013-02-25 21:45:00,42.3,32.5,30.22,WSW,245,5.0,6.0,68,0.00,,,0.05,WeatherCatV1.10B1784,2013-02-26 05:45:00,
2013-02-25 21:50:00,42.2,32.4,30.22,WSW,250,2.0,4.0,68,0.00,,,0.05,WeatherCatV1.10B1784,2013-02-26 05:50:00,
2013-02-25 21:55:00,42.1,32.3,30.22,SW,226,2.0,5.0,68,0.00,,,0.05,WeatherCatV1.10B1784,2013-02-26 05:55:00,
2013-02-25 22:00:00,41.9,32.1,30.22,WSW,239,2.0,6.0,68,0.00,,,0.05,WeatherCatV1.10B1784,2013-02-26 06:00:00,
2013-02-25 22:05:00,42.0,32.2,30.22,WSW,238,5.0,7.0,68,0.00,,,0.05,WeatherCatV1.10B1784,2013-02-26 06:05:00,
2013-02-25 22:10:00,42.0,32.2,30.22,West,259,3.0,7.0,68,0.00,,,0.05,WeatherCatV1.10B1784,2013-02-26 06:10:00,
2013-02-25 22:15:00,42.0,32.2,30.22,WSW,239,3.0,6.0,68,0.00,,,0.05,WeatherCatV1.10B1784,2013-02-26 06:15:00,
2013-02-25 22:20:00,41.9,31.8,30.23,SW,226,6.0,7.0,67,0.00,,,0.05,WeatherCatV1.10B1784,2013-02-26 06:20:00,
2013-02-25 22:25:00,42.0,31.9,30.23,WSW,255,3.0,7.0,67,0.00,,,0.05,WeatherCatV1.10B1784,2013-02-26 06:25:00,
2013-02-25 22:30:00,42.0,31.9,30.23,WSW,239,6.0,6.0,67,0.00,,,0.05,WeatherCatV1.10B1784,2013-02-26 06:30:00,
2013-02-25 22:35:00,42.1,31.9,30.23,SW,228,7.0,8.0,67,0.00,,,0.05,WeatherCatV1.10B1784,2013-02-26 06:35:00,
2013-02-25 22:40:00,42.3,31.8,30.23,SW,217,4.0,9.0,66,0.00,,,0.05,WeatherCatV1.10B1784,2013-02-26 06:40:00,
2013-02-25 22:45:00,42.3,31.8,30.23,SSW,210,3.0,9.0,66,0.00,,,0.05,WeatherCatV1.10B1784,2013-02-26 06:45:00,
2013-02-25 22:50:00,42.1,31.6,30.23,WSW,250,8.0,8.0,66,0.00,,,0.05,WeatherCatV1.10B1784,2013-02-26 06:50:00,
2013-02-25 22:55:00,42.0,31.9,30.23,WSW,241,3.0,6.0,67,0.00,,,0.05,WeatherCatV1.10B1784,2013-02-26 06:55:00,
2013-02-25 23:00:00,41.9,31.8,30.23,SW,233,5.0,7.0,67,0.00,,,0.05,WeatherCatV1.10B1784,2013-02-26 07:00:00,
2013-02-25 23:05:00,41.7,31.6,30.23,SW,236,5.0,5.0,67,0.00,,,0.05,WeatherCatV1.10B1784,2013-02-26 07:05:00,
2013-02-25 23:10:00,41.6,31.5,30.23,SSW,207,3.0,4.0,67,0.00,,,0.05,WeatherCatV1.10B1784,2013-02-26 07:10:00,
2013-02-25 23:15:00,41.2,31.5,30.23,SSW,208,2.0,4.0,68,0.00,,,0.05,WeatherCatV1.10B1784,2013-02-26 07:15:00,
2013-02-25 23:20:00,41.0,31.6,30.24,SSW,211,3.0,5.0,69,0.00,,,0.05,WeatherCatV1.10B1784,2013-02-26 07:20:00,
2013-02-25 23:25:00,40.8,31.4,30.24,SW,229,6.0,6.0,69,0.00,,,0.05,WeatherCatV1.10B1784,2013-02-26 07:25:00,
2013-02-25 23:30:00,40.7,31.3,30.24,SW,217,4.0,7.0,69,0.00,,,0.05,WeatherCatV1.10B1784,2013-02-26 07:30:00,
2013-02-25 23:35:00,40.6,31.6,30.24,SSW,208,4.0,8.0,70,0.00,,,0.05,WeatherCatV1.10B1784,2013-02-26 07:35:00,
2013-02-25 23:40:00,40.6,31.6,30.25,SW,228,5.0,5.0,70,0.00,,,0.05,WeatherCatV1.10B1784,2013-02-26 07:40:00,
2013-02-25 23:45:00,40.6,31.6,30.25,SW,221,5.0,6.0,70,0.00,,,0.05,WeatherCatV1.10B1784,2013-02-26 07:45:00,
2013-02-25 23:50:00,40.6,31.2,30.25,SSW,208,5.0,6.0,69,0.00,,,0.05,WeatherCatV1.10B1784,2013-02-26 07:50:00,
2013-02-25 23:55:00,40.8,31.4,30.25,SSW,208,5.0,7.0,69,0.00,,,0.05,WeatherCatV1.10B1784,2013-02-26 07:55:00,